• MPC Preparation (Info)

  • MPEC 2016-O157: 2014 TC86

    The following Minor Planet Electronic Circular may be linked-to from your own Web pages, but must not otherwise be redistributed electronically.

    A form allowing access to any MPEC is at the bottom of this page.


    Read MPEC 2016-O156 Read MPEC 2016-O158


    M.P.E.C. 2016-O157                               Issued 2016 July 17, 08:54 UT
    
         The Minor Planet Electronic Circulars contain information on unusual
             minor planets and routine data on comets.  They are published
        on behalf of Division F of the International Astronomical Union by the
              Minor Planet Center, Smithsonian Astrophysical Observatory,
                              Cambridge, MA 02138, U.S.A.
    
                 Prepared using the Tamkin Foundation Computer Network
    
                                  MPC@CFA.HARVARD.EDU
                URL https://www.minorplanetcenter.net/    ISSN 1523-6714
    
                                       2014 TC86
    
    Observations:
         K14T86C  C2011 01 30.28706 07 22 51.733+22 59 26.02         21.7 wLEO157F51
         K14T86C  C2011 01 30.30146 07 22 51.659+22 59 26.19         21.8 wLEO157F51
         K14T86C  C2011 01 30.31673 07 22 51.576+22 59 26.33         21.7 wLEO157F51
         K14T86C  C2011 01 30.33107 07 22 51.506+22 59 26.52         21.8 wLEO157F51
         K14T86C  C2012 12 23.55660 07 38 20.572+22 28 47.24         21.9 wLEO157F51
         K14T86C  C2012 12 23.57105 07 38 20.497+22 28 47.39         22.0 wLEO157F51
         K14T86C  C2012 12 23.58551 07 38 20.424+22 28 47.65         21.8 wLEO157F51
         K14T86C  C2012 12 23.59987 07 38 20.351+22 28 47.82         21.7 wLEO157F51
         K14T86C  C2013 01 16.49278 07 36 15.526+22 33 45.44         21.8 wLEO157F51
         K14T86C  C2013 01 16.50725 07 36 15.450+22 33 45.60         21.9 wLEO157F51
         K14T86C  C2013 01 16.52168 07 36 15.373+22 33 45.79         21.7 wLEO157F51
         K14T86C  C2013 01 16.53619 07 36 15.299+22 33 46.00         21.6 wLEO157F51
         K14T86C  C2013 12 30.37994 07 43 52.449+22 16 55.64         21.9 wLEO157F51
         K14T86C  C2013 12 30.39513 07 43 52.353+22 16 56.22         21.8 wLEO157F51
         K14T86C  C2013 12 30.41026 07 43 52.281+22 16 56.33         21.8 wLEO157F51
         K14T86C  C2013 12 30.42550 07 43 52.210+22 16 56.38         22.0 wLEO157F51
         K14T86C  C2014 01 26.29845 07 41 30.935+22 22 46.29         22.0 wLEO157F51
         K14T86C  C2014 01 26.33970 07 41 30.703+22 22 46.38         21.7 wLEO157F51
         K14T86C  C2014 01 26.35160 07 41 30.652+22 22 46.62         21.8 wLEO157F51
         K14T86C* C2014 10 01.59166 07 52 22.508+21 54 22.36         22.2 wLEO157F51
         K14T86C  C2014 10 01.59696 07 52 22.530+21 54 22.28         22.3 wLEO157F51
         K14T86C  C2014 10 01.60223 07 52 22.549+21 54 22.15         21.8 wLEO157F51
         K14T86C  C2014 10 01.60751 07 52 22.558+21 54 22.10         22.1 wLEO157F51
         K14T86C  C2015 01 13.34824 07 48 44.520+22 06 03.88         21.9 wLEO157F51
         K14T86C  C2015 01 13.36179 07 48 44.443+22 06 04.13         21.8 wLEO157F51
         K14T86C  C2015 01 13.37527 07 48 44.363+22 06 04.23         21.8 wLEO157F51
         K14T86C  C2015 01 13.38880 07 48 44.299+22 06 04.30         22.0 wLEO157F51
         K14T86C  C2015 01 16.35117 07 48 28.599+22 06 45.46         21.8 wLEO157F51
         K14T86C  C2015 01 16.36338 07 48 28.530+22 06 45.75         21.8 wLEO157F51
         K14T86C  C2015 01 16.37566 07 48 28.465+22 06 45.85         21.8 wLEO157F51
    
    Observer details:
    F51 Pan-STARRS 1, Haleakala.  Observers B. Gibson, T. Goggia, N. Primak,
        A. Schultz, M. Willman.  Measurers K. Chambers, S. Chastel, Y.-T. Chen,
        L. Denneau, H. Flewelling, M. Holman, M. Huber, R. Jedicke, M. Lackner,
        E. Lilly, H.-W. Lin, E. Magnier, M. Micheli, M. Payne, P. Veres,
        R. Wainscoat, C. Waters, R. Weryk.  1.8-m Ritchey-Chretien + CCD.
    
    Orbital elements:
    2014 TC86
    Epoch 2016 July 31.0 TT = JDT 2457600.5                 MPC
    M  23.54283              (2000.0)            P               Q
    n   0.00334834     Peri.   24.87750     -0.00475538     -0.99978393
    a  44.2502833      Node    65.40040     +0.91370735     -0.01256692
    e   0.0669881      Incl.    1.27524     +0.40634501     +0.01655769
    P 294              H    5.5           G   0.15           U   2
    Residuals in seconds of arc
    110130 F51  0.0   0.1-    130116 F51  0.0   0.1+    141001 F51  0.0   0.1-
    110130 F51  0.0   0.0     130116 F51  0.0   0.1+    141001 F51  0.0   0.2-
    110130 F51  0.1-  0.0     131230 F51  0.1+  0.1-    141001 F51  0.0   0.2-
    110130 F51  0.0   0.0     131230 F51  0.1-  0.2+    150113 F51  0.1+  0.0
    121223 F51  0.0   0.1-    131230 F51  0.0   0.2+    150113 F51  0.0   0.1+
    121223 F51  0.0   0.1-    131230 F51  0.1+  0.0     150113 F51  0.1-  0.0
    121223 F51  0.0   0.0     140126 F51  0.1+  0.3+    150113 F51  0.0   0.2-
    121223 F51  0.0   0.0     140126 F51  0.1-  0.1-    150116 F51  0.0   0.0
    130116 F51  0.1-  0.1+    140126 F51  0.1+  0.1-    150116 F51  0.0   0.1+
    130116 F51  0.0   0.0     141001 F51  0.1-  0.0     150116 F51  0.0   0.1+
    
    Ephemeris:
    2014 TC86                a,e,i = 44.25, 0.07, 1                  q = 41.286
    Date    TT    R. A. (2000) Decl.     Delta      r     Elong.  Phase     V
    2016 06 17    07 53 51.9 +21 51 36  42.4386 41.5642    30.3     0.7    21.9
    ...
    2016 07 02    07 55 25.4 +21 47 18  42.5400 41.5653    16.3     0.4    21.8
    ...
    2016 07 10    07 56 17.9 +21 44 53  42.5700 41.5660     8.9     0.2    21.8
    ...
    2016 07 16    07 56 58.0 +21 43 03  42.5809 41.5664     3.5     0.1    21.8
    2016 07 17    07 57 04.7 +21 42 44  42.5818 41.5665     2.6     0.1    21.8
    2016 07 18    07 57 11.4 +21 42 26  42.5824 41.5666     1.8     0.0    21.8
    ...
    2016 07 24    07 57 51.6 +21 40 36  42.5801 41.5671     4.2     0.1    21.8
    ...
    2016 08 01    07 58 44.8 +21 38 10  42.5615 41.5677    11.6     0.3    21.8
    ...
    2016 08 16    08 00 20.8 +21 33 50  42.4801 41.5689    25.6     0.6    21.8
    
    A. U. Tomatic                (C) Copyright 2016 MPC           M.P.E.C. 2016-O157
    

    Read MPEC 2016-O156 Read MPEC 2016-O158


    MPEC number:

    Enter an MPEC number in one of the following forms:

    • 1997-B01 (the full form)
    • J97B01 (the packed version of the full form)
    • B01 (the abbreviated form)